Home > Weather > Płock > Past weeks

Flag for Poland Past Weather in Płock, Poland — Yesterday and Last 2 Weeks

Now
66 °F

Mild.


Feels Like: 66 °F
Forecast: 55 / 68 °F
Wind: 2 mph from Southeast

Location: Plock

Current Time: Jul 2, 2016 at 4:07:36 AM

Latest Report: Jul 2, 2016 at 3:00 AM


Visibility: N/A

Pressure: 29.99 "Hg

Humidity: 81%

Dew Point: 60 °F

Location of PłockLocation

Past Weather in Płock — Graph

°F

Płock Temperature Yesterday

Maximum temperature yesterday: 82 °F (at 3:00 PM)
Minimum temperature yesterday: 64 °F (at 4:00 AM)
Average temperature yesterday: 72 °F

High & Low Weather Summary for the Past Weeks

 TemperatureHumidityPressure
High92 °F (Jun 25, 2:00 PM)97% (Jun 21, 7:00 AM)30.32 "Hg (Jun 21, 7:00 AM)
Low51 °F (Jun 19, 5:00 AM)35% (Jun 19, 4:00 PM)29.38 "Hg (Jun 17, 11:00 AM)
Average69 °F71%30.02 "Hg
* Reported Jun 17 2:00 AM — Jul 2 2:00 AM, Płock, Weather by CustomWeather, © 2016

Note: Actual official high and low records may vary slightly from our data, if they occured in-between our weather recording intervals... More about our weather records

Advertising

Płock Weather History for the Previous 24 Hours

Scroll right to see more
 ConditionsComfort  
Time TempWeatherWind HumidityBarometerVisibility
2:00 AM
Sat, Jul 2
66 °FMild.2 mph82%29.99 "HgN/A
1:00 AM65 °FMild.2 mph82%30.01 "HgN/A
12:00 AM68 °FMild.2 mph76%30.01 "HgN/A
11:00 PM
Fri, Jul 1
68 °FMild.1 mph78%30.01 "HgN/A
10:00 PM70 °FMild.1 mph74%30.01 "HgN/A
9:00 PM76 °FMild.2 mph57%30.00 "HgN/A
8:00 PM78 °FWarm.1 mph51%29.99 "HgN/A
5:00 PM81 °FWarm.2 mph46%29.99 "HgN/A
4:00 PM81 °FWarm.2 mph42%29.99 "HgN/A
3:00 PM82 °FWarm.3 mph41%29.99 "HgN/A
2:00 PM80 °FWarm.3 mph46%30.00 "HgN/A
1:00 PM79 °FWarm.5 mph45%30.00 "HgN/A
12:00 PM78 °FWarm.3 mph53%30.01 "HgN/A
11:00 AM76 °FMild.3 mph56%30.01 "HgN/A
10:00 AM75 °FMild.2 mph65%30.01 "Hg18 mi
9:00 AM73 °FMild.2 mph66%30.01 "Hg19 mi
8:00 AM70 °FMild.2 mph76%30.01 "Hg18 mi
7:00 AM69 °FMild.2 mph81%30.00 "Hg19 mi
6:00 AM65 °FMild.1 mph91%30.00 "Hg7 mi
5:00 AM64 °FRain showers. Cloudy.1 mph94%30.00 "Hg5 mi
4:00 AM64 °FFog.1 mph94%29.99 "Hg6 mi
Weather by CustomWeather, © 2016

See weather overviewHow to use our weather pages